Regional Weather Roundup
Issued by NWS

Home | Current Version | Previous Version | Graphics & Text | Print | Product List | Glossary On
Versions: 1 2 3 4 5 6 7 8 9 10 11 12 13 14 15 16 17 18 19 20 21 22 23 24 25 26 27 28 29 30 31 32 33 34 35 36 37 38 39 40 41 42 43 44 45 46 47 48 49 50
000
ASUS43 KLSX 120507
RWRMO

WEATHER SUMMARY FOR MISSOURI
NATIONAL WEATHER SERVICE SPRINGFIELD MO
1200 AM CDT SAT JUL 12 2014

NOTE: "FAIR" INDICATES FEW OR NO CLOUDS BELOW 12,000 FEET WITH NO
       SIGNIFICANT WEATHER AND/OR OBSTRUCTIONS TO VISIBILITY.
       CURRENT SKY AND/OR WEATHER CONDITIONS ARE NOT AVAILABLE FOR
       CHILLICOTHE AND FARMINGTON.

MOZ001>031-035>038-043-044-053-054-120600-
...NORTHERN AND WESTERN MISSOURI...

CITY           SKY/WX    TMP DP  RH WIND       PRES   REMARKS
KANSAS CTY INT CLEAR     79  70  74 S9        30.07R
KANSAS C DTWN  CLEAR     83  70  64 S8        30.05R
LEE`S SUMMIT   CLEAR     80  71  74 SW9       30.08R
ST JOSEPH      CLEAR     80  72  76 SW8       30.04R
CHILLICOTHE      N/A     82  74  76 SW5       30.06R
KIRKSVILLE     CLEAR     73  72  96 CALM      30.06S

$$
MOZ066>068-077>081-088>096-101>105-120600-
...SOUTHWEST MISSOURI...

CITY           SKY/WX    TMP DP  RH WIND       PRES   REMARKS
SPRINGFIELD    CLEAR     76  70  82 S8        30.14R
JOPLIN         CLEAR     77  70  79 S8        30.12S

$$
MOZ032>034-039>042-045>050-055>058-069>072-120600-
...CENTRAL MISSOURI...

CITY           SKY/WX    TMP DP  RH WIND       PRES   REMARKS
COLUMBIA       CLEAR     78  74  87 S8        30.09R
ROLLA          CLOUDY    78  72  81 S12       30.12R
SEDALIA        PTCLDY    80  73  79 SW9       30.09R
WHITEMAN AFB   CLEAR     75  68  78 SW8       30.08R
OSAGE BEACH    CLEAR     79  72  78 S6        30.11R

$$
MOZ051-052-059>065-120600-
...EAST CENTRAL MISSOURI...

CITY           SKY/WX    TMP DP  RH WIND       PRES   REMARKS
ST LOUIS INTL  MOCLDY    83  70  64 S12       30.10R
SPIRIT OF STL  PTCLDY    80  70  71 S8        30.08R
ST CHARLES     MOCLDY    81  71  71 S8        30.08R

$$
MOZ072>076-082>087-097>100-106>115-120600-
...SOUTH CENTRAL AND SOUTHEAST MISSOURI...

CITY           SKY/WX    TMP DP  RH WIND       PRES   REMARKS
CAPE GIRARDEAU CLEAR     75  68  78 S6        30.13S
FARMINGTON     CLEAR     73  70  88 S6        30.17S
POPLAR BLUFF   PTCLDY    77  71  82 S5        30.13S
WEST PLAINS    CLOUDY    77  72  84 S3        30.18R

$$



USA.gov is the U.S. government's official web portal to all federal, state and local government web resources and services.